sat.trackr.live / text

‹ back to catalog

QIANFAN-85

NORAD 63171 · 2025-046N

PAYLOAD ACTIVE UNKNOWN

§ Identity

Operator
Country
PRC
Launch date
2025-03-11
Launch site
WSC
Launch vehicle
Mass (kg)
RCS (m²)

External: N2YO · Heavens-Above · Gunter

§ Orbital elements

Epoch: 2026-09-22T21:00:24.935040Z

Period
106.59 min
Inclination
88.9640°
Eccentricity
0.0014161
Mean motion
13.51021330 rev/d
Perigee alt
1,058.0 km
Apogee alt
1,079.0 km
Semi-major
7,446.6 km
B*
1.2878e-4
RAAN
290.4163°
Arg perigee
34.5304°
Mean anomaly
325.6764°
Rev number
8,583

§ Raw data

QIANFAN-851 63171U 25046N   26265.87528860  .00000095  00000+0  12878-3 0  99922 63171  88.9640 290.4163 0014161  34.5304 325.6764 13.51021330 85838

JSON: /api/v1/satellites/63171 · /tle

For live sub-satellite position, see the globe view (requires WebGL).

§ Visibility from observer

Set your observer location to see the next 7 days of passes ≥ 10°. The values pass through the URL so the page stays shareable.

No JS? Fill the form by hand. The geolocation button needs JavaScript.